Location: Antioch Church
(34.9543°N, 88.5145°W)
Time: 23:10:35
(UTC+00:00)

FALCON 9 R/B - Pass Details

Date: 11 December 2019
Orbit: 286 x 10161 km, 34.5° (Epoch: 20 January)

Event Time Altitude Azimuth Distance (km) Brightness Sun altitude
Exits shadow 09:21:05 45° 96° (E) 1,668 3.8 -42.3°
Drops below altitude 10° 09:31:17 10° 80° (E) 5,656 7.1 -40.2°
Sets 09:39:15 0° 79° (E) 8,394 8.2 -38.6°
